Weather History for KNQX - March, 2014

Change the Weather History Date:

Thursday, March 13, 2014

  Actual Average Record
Temperature  
Mean Temperature 72 °F -  
Max Temperature 75 °F 78 °F 84 °F (1984)
Min Temperature 70 °F 69 °F 55 °F (1959)
Cooling Degree Days 8    
Growing Degree Days 22 (Base 50)    
Moisture  
Dew Point 62 °F    
Average Humidity 70    
Maximum Humidity 90    
Minimum Humidity 47    
Precipitation  
Precipitation 0.03 in - - ()
Sea Level Pressure  
Sea Level Pressure 30.00 in    
Wind  
Wind Speed 15 mph (NNW)    
Max Wind Speed 21 mph    
Max Gust Speed 28 mph    
Visibility 10 miles    
Events      
Averages and records for this station are not official NWS values.
T = Trace of Precipitation, MM = Missing Value Source: NWS Daily Summary

Daily Weather History Graph

Daily Weather History Graph

Search for Another Location

Airport or City:

Trip Planner

Search our weather history database for the weather conditions in past years. The results will help you decide how hot, cold, wet, or windy it might be!

Date:

Astronomy

Mar. 13, 2014 Rise Set
Actual Time 7:37 AM EDT 7:34 PM EDT
Civil Twilight 7:15 AM EDT 7:57 PM EDT
Nautical Twilight 6:48 AM EDT 8:24 PM EDT
Astronomical Twilight 6:22 AM EDT 8:50 PM EDT
Moon 5:11 PM EDT (3/13) 5:29 AM EDT (3/13)
Length of Visible Light 12h 42m
Length of Day
11h 57m
Waxing Gibbous, 91% of the Moon is Illuminated
Mar 13
Waxing Gibbous
Mar 16
Full
Mar 23
Last Quarter
Mar 30
New
Apr 7
First Quarter

Hourly Weather History & Observations

Time (EDT) Temp. Dew Point Humidity Pressure Visibility Wind Dir Wind Speed Gust Speed Precip Events Conditions
12:06 AM 71.1 °F 68.0 °F 90% 29.93 in 5.0 mi NNW 13.8 mph - 0.02 in   Overcast
12:53 AM 72.0 °F 66.9 °F 84% 29.90 in 10.0 mi North 10.4 mph - 0.03 in   Scattered Clouds
1:53 AM 73.9 °F 69.1 °F 85% 29.88 in 10.0 mi NW 10.4 mph - N/A   Overcast
2:53 AM 73.9 °F 68.0 °F 82% 29.88 in 10.0 mi NW 15.0 mph - N/A   Overcast
3:53 AM 75.0 °F 69.1 °F 82% 29.87 in 10.0 mi NW 15.0 mph - N/A   Overcast
4:53 AM 73.9 °F 69.1 °F 85% 29.89 in 10.0 mi NNW 15.0 mph - N/A   Mostly Cloudy
5:28 AM 73.9 °F 69.1 °F 85% 29.90 in 10.0 mi NNW 16.1 mph - N/A   Overcast
5:53 AM 73.0 °F 68.0 °F 84% 29.91 in 10.0 mi NNW 17.3 mph - N/A   Overcast
6:09 AM 73.0 °F 66.9 °F 81% 29.93 in 10.0 mi NNW 16.1 mph - N/A   Mostly Cloudy
6:53 AM 73.0 °F 64.9 °F 76% 29.94 in 10.0 mi NNW 16.1 mph - N/A   Mostly Cloudy
7:53 AM 72.0 °F 64.0 °F 76% 29.99 in 10.0 mi NNW 20.7 mph 27.6 mph N/A   Mostly Cloudy
8:53 AM 72.0 °F 62.1 °F 71% 30.03 in 10.0 mi NNW 17.3 mph 25.3 mph N/A   Mostly Cloudy
9:53 AM 73.0 °F 62.1 °F 68% 30.05 in 10.0 mi NNW 15.0 mph 25.3 mph N/A   Scattered Clouds
10:53 AM 75.0 °F 62.1 °F 64% 30.06 in 10.0 mi NNW 18.4 mph - N/A   Scattered Clouds
11:53 AM 73.0 °F 63.0 °F 71% 30.07 in 10.0 mi North 18.4 mph 27.6 mph N/A   Scattered Clouds
12:53 PM 73.0 °F 61.0 °F 66% 30.07 in 10.0 mi NNW 18.4 mph 25.3 mph N/A   Partly Cloudy
1:53 PM 73.0 °F 59.0 °F 61% 30.05 in 10.0 mi NNW 18.4 mph - N/A   Clear
2:53 PM 73.0 °F 57.9 °F 59% 30.05 in 10.0 mi NNW 18.4 mph - N/A   Clear
3:53 PM 73.0 °F 57.0 °F 57% 30.03 in 10.0 mi NNW 19.6 mph - N/A   Clear
4:53 PM 72.0 °F 57.9 °F 61% 30.03 in 10.0 mi North 19.6 mph - N/A   Clear
5:53 PM 71.1 °F 57.9 °F 63% 30.04 in 10.0 mi North 16.1 mph - N/A   Clear
6:53 PM 70.0 °F 57.9 °F 65% 30.06 in 10.0 mi North 15.0 mph - N/A   Clear
7:53 PM 70.0 °F 57.0 °F 63% 30.07 in 10.0 mi North 16.1 mph - N/A   Clear
8:53 PM 70.0 °F 57.0 °F 63% 30.09 in 10.0 mi North 13.8 mph - N/A   Clear
9:53 PM 71.1 °F 57.0 °F 61% 30.10 in 10.0 mi North 15.0 mph - N/A   Clear
10:53 PM 71.1 °F 50.0 °F 47% 30.13 in 10.0 mi NE 10.4 mph - N/A   Clear
11:53 PM 70.0 °F 52.0 °F 53% 30.13 in 10.0 mi ENE 12.7 mph - N/A   Clear